Data for 03/20/2018

Time Sea-Level Adjusted Pressure Absolute Pressure Temperature Relative Humidity Dew Point   
(mb) (inHg) (mb) (inHg) (C) (F) (%) (C) (F)
00:05 1018 30.06 847 25.01 -0.6 31 56 -8.2 17.2
00:10 1018 30.06 847 25.01 -0.6 30.9 57 -8.2 17.3
00:15 1018 30.06 847 25.01 -0.7 30.8 58 -8 17.5
00:20 1018 30.06 847 25.01 -0.8 30.6 58 -8.1 17.5
00:25 1018 30.06 847 25.01 -0.8 30.6 58 -8 17.7
00:30 1018 30.06 847 25.01 -0.8 30.6 59 -7.9 17.8
00:35 1018 30.06 847 25.01 -0.7 30.7 58 -7.9 17.7
00:40 1018 30.06 847 25.01 -0.6 30.9 59 -7.7 18.2
00:45 1018 30.06 847 25.01 -0.7 30.7 60 -7.6 18.3
00:50 1018 30.06 847 25.01 -0.8 30.5 59 -7.8 17.9
00:55 1018 30.06 847 25.01 -0.8 30.6 59 -7.7 18.1
01:00 1018 30.06 847 25.01 -0.7 30.7 59 -7.7 18.2
01:05 1018 30.06 847 25.01 -0.7 30.7 60 -7.5 18.5
01:10 1018 30.06 847 25.01 -0.8 30.5 61 -7.4 18.6
01:15 1018 30.06 847 25.01 -0.8 30.5 60 -7.7 18.2
01:20 1018 30.06 847 25.01 -0.8 30.6 60 -7.5 18.5
01:25 1018 30.06 847 25.01 -0.7 30.7 60 -7.5 18.5
01:30 1018 30.06 847 25.01 -0.8 30.5 61 -7.4 18.7
01:35 1018 30.06 847 25.01 -0.8 30.6 62 -7.2 19
01:40 1018 30.06 847 25.01 -0.8 30.5 62 -7.2 19
01:45 1018 30.06 847 25.01 -0.8 30.5 62 -7.2 19
01:50 1018 30.06 847 25.01 -0.8 30.6 62 -7.2 19.1
01:55 1018 30.06 847 25.01 -0.7 30.8 62 -7.2 19.1
02:00 1018 30.06 847 25.01 -0.6 30.9 62 -7 19.4
02:05 1018 30.06 847 25.01 -0.7 30.8 63 -6.8 19.7
02:10 1017 30.03 847 25.01 -0.7 30.7 63 -6.9 19.6
02:15 1017 30.03 847 25.01 -0.7 30.8 63 -6.9 19.6
02:20 1017 30.03 847 25.01 -0.6 30.9 62 -6.9 19.5
02:25 1017 30.03 847 25.01 -0.5 31 62 -6.9 19.6
02:30 1017 30.03 846 24.98 -0.5 31.1 62 -7 19.4
02:35 1017 30.03 846 24.98 -0.4 31.2 60 -7.2 19
02:40 1017 30.03 846 24.98 -0.4 31.4 60 -7.2 19.1
02:45 1017 30.03 846 24.98 -0.3 31.5 57 -7.8 18
02:50 1017 30.03 846 24.98 -0.2 31.7 58 -7.5 18.5
02:55 1017 30.03 846 24.98 -0.2 31.6 64 -6.3 20.6
03:00 1017 30.03 846 24.98 -0.7 30.8 64 -6.8 19.8
03:05 1017 30.03 846 24.98 -0.4 31.2 57 -8 17.6
03:10 1017 30.03 846 24.98 0 32 55 -8 17.5
03:15 1017 30.03 846 24.98 0.3 32.5 53 -8.2 17.3
03:20 1017 30.03 846 24.98 0.4 32.7 53 -8.2 17.2
03:25 1017 30.03 846 24.98 0.4 32.7 52 -8.4 16.9
03:30 1017 30.03 846 24.98 0.4 32.7 55 -7.7 18.1
03:35 1017 30.03 846 24.98 0.1 32.2 56 -7.7 18.1
03:40 1017 30.03 846 24.98 0.1 32.2 58 -7.2 19
03:45 1017 30.03 847 25.01 -0 32 60 -6.9 19.6
03:50 1017 30.03 847 25.01 -0.2 31.7 61 -6.8 19.7
03:55 1017 30.03 846 24.98 -0.3 31.5 61 -6.8 19.8
04:00 1017 30.03 847 25.01 -0.3 31.5 62 -6.8 19.8
04:05 1017 30.03 846 24.98 -0.3 31.5 61 -6.8 19.7
04:10 1017 30.03 846 24.98 -0.3 31.5 61 -6.9 19.6
04:15 1017 30.03 846 24.98 -0.3 31.4 62 -6.8 19.8
04:20 1017 30.03 846 24.98 -0.4 31.2 62 -6.9 19.6
04:25 1017 30.03 846 24.98 -0.4 31.3 62 -6.8 19.7
04:30 1017 30.03 846 24.98 -0.4 31.3 62 -6.9 19.7
04:35 1017 30.03 846 24.98 -0.3 31.4 62 -6.8 19.7
04:40 1017 30.03 846 24.98 -0.3 31.5 62 -6.8 19.8
04:45 1017 30.03 847 25.01 -0.3 31.4 62 -6.8 19.8
04:50 1017 30.03 847 25.01 -0.4 31.3 61 -7 19.5
04:55 1017 30.03 847 25.01 -0.3 31.5 61 -6.9 19.6
05:00 1017 30.03 847 25.01 -0.3 31.5 61 -7 19.5
05:05 1017 30.03 847 25.01 -0.3 31.5 60 -7.1 19.3
05:10 1017 30.03 847 25.01 -0.2 31.6 61 -6.9 19.7
05:15 1017 30.03 847 25.01 -0.2 31.6 60 -7 19.4
05:20 1017 30.03 847 25.01 -0.2 31.6 60 -7.1 19.3
05:25 1017 30.03 847 25.01 -0.3 31.5 60 -7 19.3
05:30 1017 30.03 847 25.01 -0.2 31.7 61 -6.7 19.9
05:35 1017 30.03 847 25.01 -0.3 31.5 61 -7 19.5
05:40 1017 30.03 847 25.01 -0.2 31.6 59 -7.3 18.9
05:45 1017 30.03 847 25.01 -0 31.9 56 -7.9 17.9
05:50 1017 30.03 847 25.01 0.3 32.6 54 -8 17.6
05:55 1017 30.03 847 25.01 0.5 32.9 54 -7.7 18.1
06:00 1017 30.03 847 25.01 0.5 32.9 55 -7.6 18.4
06:05 1017 30.03 847 25.01 0.3 32.6 56 -7.5 18.5
06:10 1017 30.03 847 25.01 0.4 32.7 54 -7.9 17.8
06:15 1017 30.03 847 25.01 0.5 33 53 -7.9 17.8
06:20 1017 30.03 847 25.01 0.6 33.1 54 -7.7 18.1
06:25 1017 30.03 847 25.01 0.5 33 55 -7.4 18.6
06:30 1017 30.03 847 25.01 0.4 32.7 55 -7.5 18.4
06:35 1017 30.03 847 25.01 0.3 32.5 56 -7.5 18.4
06:40 1017 30.03 847 25.01 0.2 32.4 56 -7.5 18.5
06:45 1017 30.03 847 25.01 0.4 32.7 55 -7.5 18.4
06:50 1017 30.03 847 25.01 0.4 32.7 55 -7.6 18.4
06:55 1017 30.03 847 25.01 0.4 32.8 56 -7.4 18.6
07:00 1017 30.03 847 25.01 0.4 32.7 56 -7.3 18.8
07:05 1017 30.03 847 25.01 0.4 32.7 56 -7.3 18.8
07:10 1017 30.03 847 25.01 0.5 32.8 56 -7.4 18.7
07:15 1017 30.03 847 25.01 0.5 32.9 55 -7.6 18.4
07:20 1017 30.03 847 25.01 0.5 33 56 -7.3 18.8
07:25 1017 30.03 847 25.01 0.6 33.1 55 -7.4 18.7
07:30 1017 30.03 847 25.01 0.7 33.2 55 -7.5 18.6
07:35 1017 30.03 847 25.01 0.6 33.2 55 -7.4 18.7
07:40 1017 30.03 847 25.01 0.6 33.1 56 -7.1 19.2
07:45 1017 30.03 847 25.01 1.1 34 52 -7.7 18.1
07:50 1017 30.03 847 25.01 1.6 34.8 51 -7.5 18.6
07:55 1017 30.03 847 25.01 2.2 36 49 -7.5 18.5
08:00 1017 30.03 847 25.01 2.7 36.9 48 -7.2 19.1
08:05 1017 30.03 847 25.01 2.3 36.1 49 -7.3 18.9
08:10 1017 30.03 847 25.01 1.9 35.4 50 -7.6 18.3
08:15 1017 30.03 847 25.01 1.6 34.9 51 -7.4 18.7
08:20 1017 30.03 847 25.01 1.5 34.7 53 -7.1 19.2
08:25 1017 30.03 847 25.01 1.5 34.7 53 -7 19.5
08:30 1017 30.03 847 25.01 1.5 34.7 53 -7 19.4
08:35 1017 30.03 847 25.01 1.6 34.8 52 -7.2 19.1
08:40 1018 30.06 847 25.01 1.7 35.1 52 -7 19.4
08:45 1018 30.06 847 25.01 2.1 35.7 49 -7.5 18.5
08:50 1018 30.06 847 25.01 2.3 36.2 48 -7.7 18.2
08:55 1018 30.06 847 25.01 2.8 37.1 46 -7.6 18.3
09:00 1018 30.06 847 25.01 2.9 37.3 46 -7.6 18.3
09:05 1018 30.06 847 25.01 2.5 36.6 47 -7.6 18.4
09:10 1018 30.06 847 25.01 2.4 36.3 47 -7.8 18
09:15 1018 30.06 847 25.01 2.6 36.6 46 -7.8 17.9
09:20 1018 30.06 847 25.01 2.6 36.7 46 -7.7 18.1
09:25 1018 30.06 847 25.01 2.7 36.9 45 -8 17.5
09:30 1018 30.06 847 25.01 2.7 36.8 47 -7.4 18.7
09:35 1018 30.06 847 25.01 2.4 36.4 48 -7.4 18.7
09:40 1018 30.06 847 25.01 2.3 36.1 47 -8 17.6
09:45 1018 30.06 847 25.01 3.1 37.7 45 -7.7 18.1
09:50 1018 30.06 847 25.01 3.7 38.7 43 -7.6 18.3
09:55 1017 30.03 847 25.01 4 39.1 41 -8.1 17.4
10:00 1017 30.03 847 25.01 3.6 38.4 42 -8.3 17.1
10:05 1017 30.03 847 25.01 4.2 39.5 39 -8.6 16.5
10:10 1017 30.03 847 25.01 4.1 39.4 41 -7.9 17.8
10:15 1018 30.06 847 25.01 3.9 39 41 -8.3 17.1
10:20 1018 30.06 847 25.01 4.2 39.6 39 -8.4 16.8
10:25 1017 30.03 847 25.01 4.1 39.4 41 -8.1 17.5
10:30 1017 30.03 847 25.01 4 39.2 40 -8.5 16.7
10:35 1017 30.03 847 25.01 4.3 39.7 39 -8.6 16.6
10:40 1017 30.03 847 25.01 4 39.2 40 -8.4 16.8
10:45 1017 30.03 847 25.01 4.1 39.4 38 -8.9 15.9
10:50 1017 30.03 847 25.01 4.6 40.4 36 -9 15.7
10:55 1017 30.03 847 25.01 5.1 41.2 34 -9.4 15.1
11:00 1017 30.03 846 24.98 5.3 41.5 36 -8.5 16.8
11:05 1017 30.03 846 24.98 5.1 41.1 36 -8.8 16.1
11:10 1017 30.03 846 24.98 5.4 41.7 36 -8.6 16.5
11:15 1017 30.03 846 24.98 5 41.1 36 -8.9 16
11:20 1017 30.03 846 24.98 5.1 41.1 37 -8.4 16.8
11:25 1017 30.03 846 24.98 5.3 41.6 36 -8.6 16.5
11:30 1017 30.03 846 24.98 6 42.9 33 -9 15.8
11:35 1017 30.03 846 24.98 6 42.7 35 -8.3 17
11:40 1017 30.03 846 24.98 5.3 41.5 35 -9 15.9
11:45 1017 30.03 846 24.98 4.8 40.7 37 -8.8 16.2
11:50 1017 30.03 846 24.98 5 41.1 36 -8.9 15.9
11:55 1017 30.03 846 24.98 4.9 40.9 37 -8.6 16.6
12:00 1017 30.03 846 24.98 4.8 40.7 36 -8.9 16
12:05 1017 30.03 846 24.98 5.2 41.4 35 -9 15.8
12:10 1017 30.03 846 24.98 5.7 42.3 35 -8.6 16.5
12:15 1017 30.03 846 24.98 5.8 42.5 33 -9.1 15.7
12:20 1017 30.03 846 24.98 5.9 42.5 33 -9.1 15.6
12:25 1017 30.03 846 24.98 6.1 43.1 32 -9.5 15
12:30 1017 30.03 846 24.98 5.9 42.6 32 -9.6 14.7
12:35 1017 30.03 846 24.98 6 42.8 32 -9.5 14.9
12:40 1017 30.03 846 24.98 5.9 42.7 33 -9.2 15.4
12:45 1017 30.03 846 24.98 5.8 42.4 33 -9.1 15.6
12:50 1017 30.03 846 24.98 5.6 42.1 35 -8.9 16
12:55 1016 30 846 24.98 5.6 42.1 35 -8.8 16.1
13:00 1016 30 846 24.98 5.5 41.8 32 -9.8 14.4
13:05 1016 30 846 24.98 6.1 43 31 -9.8 14.4
13:10 1016 30 846 24.98 6.6 43.9 30 -9.7 14.5
13:15 1016 30 846 24.98 6.8 44.3 32 -8.8 16.2
13:20 1016 30 846 24.98 6.8 44.2 30 -9.5 15
13:25 1016 30 845 24.95 6.5 43.8 31 -9.4 15.1
13:30 1016 30 845 24.95 6.4 43.5 32 -9.2 15.4
13:35 1016 30 845 24.95 6.4 43.6 32 -9.3 15.3
13:40 1016 30 845 24.95 7 44.7 29 -9.8 14.3
13:45 1016 30 845 24.95 7.3 45.1 29 -9.5 14.9
13:50 1016 30 845 24.95 7.1 44.8 29 -9.7 14.6
13:55 1016 30 845 24.95 6.8 44.2 30 -9.8 14.4
14:00 1016 30 845 24.95 6.8 44.3 30 -9.7 14.5
14:05 1016 30 845 24.95 6.9 44.3 31 -9.3 15.2
14:10 1016 30 845 24.95 6.6 43.8 32 -9 15.9
14:15 1016 30 845 24.95 6.7 44.1 31 -9.2 15.4
14:20 1016 30 845 24.95 6.7 44.1 28 -10.6 13
14:25 1016 30 845 24.95 6.7 44 28 -10.4 13.2
14:30 1016 30 845 24.95 6.6 43.9 29 -10.2 13.7
14:35 1016 30 845 24.95 6.6 43.8 29 -10.4 13.3
14:40 1016 30 845 24.95 6.3 43.3 29 -10.4 13.2
14:45 1015 29.97 845 24.95 6.3 43.3 30 -10 14
14:50 1015 29.97 845 24.95 5.9 42.7 31 -9.9 14.2
14:55 1015 29.97 845 24.95 5.9 42.7 31 -9.7 14.5
15:00 1015 29.97 845 24.95 6.3 43.3 31 -9.8 14.3
15:05 1015 29.97 845 24.95 6.7 44 27 -11.1 12
15:10 1015 29.97 845 24.95 6.9 44.5 27 -10.8 12.6
15:15 1015 29.97 845 24.95 7.3 45.1 27 -10.7 12.8
15:20 1015 29.97 845 24.95 7.6 45.6 27 -10.3 13.5
15:25 1015 29.97 845 24.95 7.3 45.2 26 -11 12.2
15:30 1015 29.97 845 24.95 7 44.7 26 -11.3 11.7
15:35 1015 29.97 845 24.95 7.1 44.9 26 -11.1 12
15:40 1015 29.97 845 24.95 7.9 46.3 26 -10.2 13.6
15:45 1015 29.97 845 24.95 8 46.4 28 -9.4 15.1
15:50 1015 29.97 844 24.92 7.6 45.7 28 -10 14
15:55 1015 29.97 844 24.92 7.6 45.8 29 -9.5 15
16:00 1015 29.97 844 24.92 7.9 46.2 28 -9.3 15.2
16:05 1015 29.97 844 24.92 7.8 46 28 -9.4 15
16:10 1015 29.97 844 24.92 7.4 45.4 28 -9.8 14.4
16:15 1015 29.97 844 24.92 7.4 45.3 30 -9.3 15.3
16:20 1015 29.97 844 24.92 6.8 44.3 30 -9.7 14.6
16:25 1015 29.97 844 24.92 6.9 44.4 28 -10.6 12.9
16:30 1015 29.97 844 24.92 7 44.6 29 -10.1 13.9
16:35 1015 29.97 844 24.92 6.9 44.3 30 -9.5 14.9
16:40 1015 29.97 844 24.92 6.9 44.5 30 -9.6 14.7
16:45 1015 29.97 844 24.92 7.4 45.3 29 -9.3 15.3
16:50 1015 29.97 844 24.92 6.8 44.3 30 -9.4 15.2
16:55 1015 29.97 844 24.92 6.7 44 31 -9.4 15
17:00 1015 29.97 844 24.92 6.6 43.8 31 -9.3 15.2
17:05 1015 29.97 844 24.92 6.6 43.9 31 -9.4 15
17:10 1015 29.97 844 24.92 6.6 43.8 31 -9.3 15.3
17:15 1015 29.97 844 24.92 6.5 43.6 32 -9.1 15.7
17:20 1015 29.97 844 24.92 6.3 43.4 31 -9.4 15.1
17:25 1015 29.97 844 24.92 6.7 44.1 31 -9.1 15.6
17:30 1015 29.97 844 24.92 6.5 43.6 32 -8.9 15.9
17:35 1015 29.97 844 24.92 6.2 43.2 34 -8.6 16.5
17:40 1015 29.97 844 24.92 6 42.7 33 -8.9 15.9
17:45 1015 29.97 844 24.92 5.7 42.2 34 -8.8 16.1
17:50 1015 29.97 844 24.92 5.4 41.7 35 -9 15.8
17:55 1015 29.97 844 24.92 5.4 41.7 34 -9.2 15.4
18:00 1015 29.97 844 24.92 5.6 42 33 -9.3 15.2
18:05 1015 29.97 844 24.92 5.7 42.3 34 -9.1 15.6
18:10 1015 29.97 844 24.92 5.4 41.8 35 -8.9 16.1
18:15 1015 29.97 844 24.92 5.3 41.6 32 -9.9 14.2
18:20 1015 29.97 844 24.92 5.3 41.5 35 -9.2 15.5
18:25 1015 29.97 844 24.92 5.1 41.1 36 -8.9 16
18:30 1015 29.97 844 24.92 4.9 40.8 36 -9 15.7
18:35 1015 29.97 844 24.92 4.7 40.5 36 -9.1 15.6
18:40 1015 29.97 844 24.92 4.7 40.5 36 -9.3 15.3
18:45 1015 29.97 844 24.92 4.7 40.4 35 -9.5 14.9
18:50 1015 29.97 844 24.92 4.6 40.2 36 -9.3 15.3
18:55 1015 29.97 844 24.92 4.3 39.8 37 -9.3 15.3
19:00 1015 29.97 844 24.92 4.3 39.7 36 -9.4 15.2
19:05 1015 29.97 844 24.92 4.4 39.9 36 -9.3 15.3
19:10 1015 29.97 844 24.92 4.4 40 37 -9.1 15.7
19:15 1015 29.97 844 24.92 4.3 39.7 39 -8.7 16.4
19:20 1015 29.97 844 24.92 4.1 39.4 39 -8.7 16.4
19:25 1015 29.97 844 24.92 4.1 39.3 39 -8.6 16.4
19:30 1015 29.97 844 24.92 4 39.2 39 -8.8 16.1
19:35 1015 29.97 844 24.92 4 39.2 38 -9 15.8
19:40 1015 29.97 844 24.92 3.8 38.9 39 -8.9 16
19:45 1015 29.97 844 24.92 3.7 38.6 40 -8.6 16.6
19:50 1015 29.97 844 24.92 3.5 38.2 41 -8.6 16.6
19:55 1015 29.97 844 24.92 3.2 37.8 42 -8.5 16.7
20:00 1015 29.97 844 24.92 3 37.5 43 -8.5 16.8
20:05 1015 29.97 844 24.92 2.9 37.2 42 -8.8 16.2
20:10 1015 29.97 844 24.92 2.7 36.9 43 -8.6 16.5
20:15 1015 29.97 844 24.92 2.6 36.7 44 -8.5 16.7
20:20 1015 29.97 844 24.92 2.4 36.4 45 -8.3 17.1
20:25 1015 29.97 844 24.92 2.3 36.1 44 -8.6 16.5
20:30 1015 29.97 844 24.92 2.4 36.3 42 -9.2 15.5
20:35 1015 29.97 844 24.92 2.5 36.6 40 -9.8 14.3
20:40 1015 29.97 844 24.92 2.6 36.7 38 -10.3 13.5
20:45 1015 29.97 844 24.92 2.8 37.1 37 -10.4 13.2
20:50 1015 29.97 844 24.92 3.1 37.5 37 -10.2 13.6
20:55 1015 29.97 845 24.95 3.1 37.5 38 -9.8 14.4
21:00 1015 29.97 845 24.95 2.9 37.3 39 -9.6 14.8
21:05 1015 29.97 844 24.92 2.7 36.9 43 -8.8 16.2
21:10 1015 29.97 845 24.95 2.5 36.5 40 -9.7 14.5
21:15 1015 29.97 845 24.95 2.7 36.8 40 -9.5 15
21:20 1015 29.97 845 24.95 2.7 36.8 42 -9.1 15.7
21:25 1015 29.97 845 24.95 2.7 36.8 44 -8.3 17.1
21:30 1015 29.97 845 24.95 2.3 36.1 45 -8.4 16.8
21:35 1015 29.97 845 24.95 2.1 35.8 45 -8.6 16.6
21:40 1015 29.97 845 24.95 2 35.7 46 -8.5 16.6
21:45 1015 29.97 844 24.92 2 35.6 46 -8.6 16.6
21:50 1015 29.97 844 24.92 2 35.6 47 -8.2 17.3
21:55 1015 29.97 844 24.92 1.8 35.3 48 -8.1 17.4
22:00 1015 29.97 844 24.92 1.6 34.9 50 -7.7 18.2
22:05 1015 29.97 845 24.95 1.4 34.5 48 -8.4 16.8
22:10 1015 29.97 845 24.95 1.3 34.4 49 -8.2 17.2
22:15 1015 29.97 845 24.95 1.3 34.3 48 -8.4 16.8
22:20 1015 29.97 844 24.92 1.5 34.7 49 -8 17.5
22:25 1015 29.97 844 24.92 1.5 34.7 46 -8.9 16
22:30 1015 29.97 845 24.95 1.6 34.9 49 -8.1 17.5
22:35 1015 29.97 845 24.95 1.5 34.8 49 -7.9 17.7
22:40 1015 29.97 845 24.95 1.4 34.5 50 -8 17.5
22:45 1015 29.97 845 24.95 1.5 34.6 50 -7.9 17.7
22:50 1015 29.97 845 24.95 1.7 35 49 -8 17.7
22:55 1015 29.97 845 24.95 1.7 35 49 -8 17.7
23:00 1016 30 845 24.95 1.7 35.1 48 -8.1 17.5
23:05 1016 30 845 24.95 1.7 35 48 -8.1 17.4
23:10 1016 30 845 24.95 1.7 35 47 -8.3 17
23:15 1016 30 845 24.95 1.7 35 48 -8.1 17.4
23:20 1016 30 845 24.95 1.6 34.8 50 -7.8 18
23:25 1016 30 845 24.95 1.3 34.4 49 -8.2 17.3
23:30 1016 30 845 24.95 1.2 34.1 51 -7.9 17.8
23:35 1016 30 845 24.95 0.8 33.5 53 -7.7 18.2
23:40 1016 30 845 24.95 0.4 32.8 54 -7.8 17.9
23:45 1016 30 845 24.95 0.4 32.7 54 -7.8 18
23:50 1016 30 845 24.95 0.2 32.4 55 -7.8 18
23:55 1016 30 845 24.95 0.1 32.1 56 -7.7 18.1
24:00 1016 30 845 24.95 -0 31.9 55 -7.9 17.8